• In Russia
  • List of Countries
  • For 7 days
  • Water Temperature
  • Satellite Maps
  • Weather Map
  • Weather Widgets
  • user-avatar
    Login

    Hourly Weather Ischgl

    Today, 22 January, Sunday

    Time Temperature Precipitation Wind Pressure Humidity
    00:00 -18°C° 0 mm 2 mps 570 mmHg 90%
    01:00 -19°C° 0 mm 2 mps 570 mmHg 90%
    02:00 -19°C° 0 mm 2 mps 569 mmHg 89%
    03:00 -19°C° 0 mm 2 mps 569 mmHg 89%
    04:00 -19°C° 0 mm 2 mps 569 mmHg 88%
    05:00 -19°C° 0 mm 2 mps 569 mmHg 88%
    06:00 -19°C° 0 mm 2 mps 569 mmHg 87%
    07:00 -19°C° 0 mm 2 mps 569 mmHg 87%
    08:00 -17°C° 0 mm 2 mps 570 mmHg 88%
    09:00 -15°C° 0 mm 2 mps 571 mmHg 88%
    10:00 -12°C° 0 mm 2 mps 573 mmHg 89%
    11:00 -10°C° 0 mm 2 mps 573 mmHg 91%
    12:00 -8°C° 0 mm 2 mps 574 mmHg 92%
    13:00 -6°C° 0 mm 2 mps 575 mmHg 93%
    14:00 -7°C° 0 mm 2 mps 574 mmHg 94%
    15:00 -9°C° 0 mm 2 mps 573 mmHg 94%
    16:00 -10°C° 0 mm 2 mps 572 mmHg 94%
    17:00 -13°C° 0 mm 2 mps 571 mmHg 93%
    18:00 -15°C° 0 mm 2 mps 570 mmHg 92%
    19:00 -18°C° 0 mm 2 mps 568 mmHg 91%
    20:00 -18°C° 0 mm 2 mps 568 mmHg 91%
    21:00 -18°C° 0 mm 2 mps 568 mmHg 91%
    22:00 -18°C° 0 mm 2 mps 568 mmHg 91%
    23:00 -18°C° 0 mm 2 mps 568 mmHg 90%

    Tomorrow, 23 January, Monday

    Time Temperature Precipitation Wind Pressure Humidity
    00:00 -19°C° 0 mm 2 mps 568 mmHg 90%
    01:00 -19°C° 0 mm 2 mps 568 mmHg 90%
    02:00 -19°C° 0 mm 2 mps 567 mmHg 89%
    03:00 -19°C° 0 mm 2 mps 567 mmHg 88%
    04:00 -19°C° 0 mm 2 mps 567 mmHg 88%
    05:00 -19°C° 0 mm 2 mps 566 mmHg 87%
    06:00 -20°C° 0 mm 2 mps 566 mmHg 86%
    07:00 -20°C° 0 mm 2 mps 566 mmHg 85%
    08:00 -17°C° 0 mm 2 mps 568 mmHg 86%
    09:00 -15°C° 0 mm 2 mps 569 mmHg 87%
    10:00 -10°C° 0 mm 1 mps 571 mmHg 88%
    11:00 -8°C° 0 mm 1 mps 571 mmHg 90%
    12:00 -6°C° 0 mm 0 mps 572 mmHg 91%
    13:00 -4°C° 0 mm 0 mps 573 mmHg 93%
    14:00 -7°C° 0 mm 0 mps 571 mmHg 94%
    15:00 -9°C° 0 mm 0 mps 570 mmHg 94%
    16:00 -11°C° 0 mm 0 mps 568 mmHg 95%
    17:00 -16°C° 0 mm 0 mps 565 mmHg 96%
    18:00 -21°C° 0 mm 0 mps 562 mmHg 97%
    19:00 -26°C° 0 mm 0 mps 559 mmHg 99%
    20:00 -25°C° 0 mm 0 mps 559 mmHg 98%
    21:00 -25°C° 0 mm 1 mps 560 mmHg 97%
    22:00 -24°C° 0 mm 1 mps 560 mmHg 96%
    23:00 -24°C° 0 mm 1 mps 560 mmHg 94%

    Day after tomorrow, 24 January, Tuesday

    Time Temperature Precipitation Wind Pressure Humidity
    00:00 -24°C° 0 mm 1 mps 560 mmHg 93%
    01:00 -24°C° 0 mm 1 mps 560 mmHg 92%
    02:00 -24°C° 0 mm 1 mps 560 mmHg 90%
    03:00 -24°C° 0 mm 1 mps 560 mmHg 89%
    04:00 -24°C° 0 mm 1 mps 560 mmHg 88%
    05:00 -25°C° 0 mm 1 mps 560 mmHg 86%
    06:00 -25°C° 0 mm 1 mps 560 mmHg 85%
    07:00 -25°C° 0 mm 1 mps 560 mmHg 83%
    08:00 -20°C° 0 mm 1 mps 563 mmHg 84%
    09:00 -15°C° 0 mm 1 mps 567 mmHg 84%
    10:00 -10°C° 0 mm 1 mps 570 mmHg 85%
    11:00 -8°C° 0 mm 1 mps 571 mmHg 87%
    12:00 -7°C° 0 mm 0 mps 571 mmHg 89%
    13:00 -5°C° 0 mm 0 mps 572 mmHg 91%
    14:00 -7°C° 0 mm 0 mps 571 mmHg 93%
    15:00 -8°C° 0 mm 0 mps 570 mmHg 95%
    16:00 -10°C° 0 mm 1 mps 570 mmHg 97%
    17:00 -14°C° 0 mm 1 mps 568 mmHg 97%
    18:00 -18°C° 0 mm 1 mps 565 mmHg 98%
    19:00 -22°C° 0 mm 1 mps 563 mmHg 98%
    20:00 -22°C° 0 mm 1 mps 563 mmHg 98%
    21:00 -23°C° 0 mm 1 mps 562 mmHg 97%
    22:00 -24°C° 0 mm 1 mps 562 mmHg 96%
    23:00 -24°C° 0 mm 1 mps 562 mmHg 93%

    25 January, Wednesday

    Time Temperature Precipitation Wind Pressure Humidity
    00:00 -24°C° 0 mm 1 mps 562 mmHg 89%
    01:00 -24°C° 0 mm 1 mps 562 mmHg 86%
    02:00 -24°C° 0 mm 1 mps 563 mmHg 83%
    03:00 -23°C° 0 mm 1 mps 563 mmHg 80%
    04:00 -23°C° 0 mm 1 mps 563 mmHg 77%
    05:00 -23°C° 0 mm 1 mps 563 mmHg 76%
    06:00 -23°C° 0 mm 1 mps 563 mmHg 75%
    07:00 -23°C° 0 mm 1 mps 563 mmHg 75%
    08:00 -18°C° 0 mm 1 mps 567 mmHg 78%
    09:00 -13°C° 0 mm 1 mps 570 mmHg 82%
    10:00 -9°C° 0 mm 1 mps 573 mmHg 85%
    11:00 -7°C° 0 mm 1 mps 574 mmHg 88%
    12:00 -6°C° 0 mm 1 mps 574 mmHg 90%
    13:00 -4°C° 0 mm 0 mps 575 mmHg 93%
    14:00 -6°C° 0 mm 0 mps 574 mmHg 93%
    15:00 -7°C° 0 mm 0 mps 573 mmHg 93%
    16:00 -9°C° 0 mm 0 mps 572 mmHg 92%
    17:00 -12°C° 0 mm 1 mps 570 mmHg 92%
    18:00 -15°C° 0 mm 1 mps 569 mmHg 91%
    19:00 -19°C° 0 mm 1 mps 567 mmHg 90%
    20:00 -18°C° 0 mm 1 mps 567 mmHg 87%
    21:00 -17°C° 0 mm 1 mps 568 mmHg 85%
    22:00 -17°C° 0 mm 1 mps 569 mmHg 83%
    23:00 -18°C° 0 mm 2 mps 569 mmHg 82%

    26 January, Thursday

    Time Temperature Precipitation Wind Pressure Humidity
    00:00 -18°C° 0 mm 2 mps 570 mmHg 80%
    01:00 -17°C° 0 mm 2 mps 570 mmHg 79%
    02:00 -17°C° 0 mm 2 mps 570 mmHg 79%
    03:00 -17°C° 0 mm 2 mps 570 mmHg 78%
    04:00 -17°C° 0 mm 2 mps 570 mmHg 78%
    05:00 -17°C° 0 mm 2 mps 570 mmHg 78%
    06:00 -17°C° 0 mm 2 mps 570 mmHg 77%
    07:00 -17°C° 0 mm 2 mps 570 mmHg 77%
    08:00 -14°C° 0 mm 2 mps 572 mmHg 80%
    09:00 -12°C° 0 mm 2 mps 574 mmHg 83%
    10:00 -8°C° 0 mm 2 mps 576 mmHg 87%
    11:00 -6°C° 0 mm 1 mps 576 mmHg 89%
    12:00 -3°C° 0 mm 1 mps 577 mmHg 92%
    13:00 -2°C° 0 mm 1 mps 577 mmHg 94%
    14:00 -3°C° 0 mm 1 mps 577 mmHg 93%
    15:00 -4°C° 0 mm 1 mps 576 mmHg 92%
    16:00 -6°C° 0 mm 1 mps 576 mmHg 91%
    17:00 -8°C° 0 mm 1 mps 574 mmHg 89%
    18:00 -11°C° 0 mm 1 mps 573 mmHg 88%
    19:00 -16°C° 0 mm 2 mps 572 mmHg 86%
    20:00 -15°C° 0 mm 2 mps 572 mmHg 85%
    21:00 -15°C° 0 mm 2 mps 573 mmHg 84%
    22:00 -15°C° 0 mm 2 mps 573 mmHg 83%
    23:00 -15°C° 0 mm 2 mps 573 mmHg 83%

    27 January, Friday

    Time Temperature Precipitation Wind Pressure Humidity
    00:00 -15°C° 0 mm 2 mps 573 mmHg 83%
    01:00 -14°C° 0 mm 2 mps 573 mmHg 83%
    02:00 -15°C° 0 mm 2 mps 573 mmHg 83%
    03:00 -15°C° 0 mm 2 mps 573 mmHg 83%
    04:00 -15°C° 0 mm 2 mps 573 mmHg 82%
    05:00 -15°C° 0 mm 2 mps 573 mmHg 82%
    06:00 -15°C° 0 mm 2 mps 573 mmHg 81%
    07:00 -15°C° 0 mm 2 mps 573 mmHg 81%
    08:00 -12°C° 0 mm 2 mps 575 mmHg 83%
    09:00 -9°C° 0 mm 2 mps 576 mmHg 86%
    10:00 -7°C° 0 mm 2 mps 578 mmHg 88%
    11:00 -4°C° 0 mm 1 mps 578 mmHg 91%
    12:00 -2°C° 0 mm 1 mps 579 mmHg 93%
    13:00 -1°C° 0 mm 1 mps 579 mmHg 95%
    14:00 -2°C° 0 mm 1 mps 578 mmHg 93%
    15:00 -4°C° 0 mm 0 mps 578 mmHg 92%
    16:00 -5°C° 0 mm 0 mps 577 mmHg 91%
    17:00 -9°C° 0 mm 0 mps 575 mmHg 91%
    18:00 -13°C° 0 mm 0 mps 572 mmHg 92%
    19:00 -17°C° 0 mm 1 mps 570 mmHg 93%
    20:00 -16°C° 0 mm 1 mps 571 mmHg 91%
    21:00 -16°C° 0 mm 1 mps 571 mmHg 89%
    22:00 -16°C° 0 mm 1 mps 571 mmHg 87%
    23:00 -16°C° 0 mm 1 mps 571 mmHg 86%
    Show more